,,,PA_Meas_PMT16A,,PR_Meas_QMR101_102,,RH_Meas_QMH101,,SR_Meas_QMS101,,TA_Meas_QMH101,,GenWind,,GenWind,
date,time,status,PA,status,PR,status,RH,status,SR,status,TA,status,DirAvg,status,SpdAvg,
2008-09-27, 00:00:05,VALID,1011.29,VALID,0,VALID,95.7718,VALID,0,VALID,23.1095,VALID,11,VALID,0.0472656,
2008-09-27, 00:01:05,VALID,1011.28,VALID,0,VALID,95.7795,VALID,0,VALID,23.129,VALID,132,VALID,0.366016,
2008-09-27, 00:02:05,VALID,1011.26,VALID,0,VALID,95.7947,VALID,0,VALID,23.1077,VALID,132,VALID,0.200391,
2008-09-27, 00:03:05,VALID,1011.23,VALID,0,VALID,95.7871,VALID,0,VALID,23.129,VALID,132,VALID,0,
2008-09-27, 00:04:05,VALID,1011.21,VALID,0,VALID,95.7718,VALID,0,VALID,23.1485,VALID,132,VALID,0,
2008-09-27, 00:05:05,VALID,1011.18,VALID,0,VALID,95.7642,VALID,0,VALID,23.129,VALID,132,VALID,0,
2008-09-27, 00:06:05,VALID,1011.18,VALID,0,VALID,95.7566,VALID,0,VALID,23.129,VALID,132,VALID,0,
2008-09-27, 00:07:05,VALID,1011.13,VALID,0,VALID,95.7718,VALID,0,VALID,23.1485,VALID,132,VALID,0,
2008-09-27, 00:08:05,VALID,1011.13,VALID,0,VALID,95.7718,VALID,0,VALID,23.1679,VALID,132,VALID,0,
2008-09-27, 00:09:05,VALID,1011.16,VALID,0,VALID,95.7718,VALID,0,VALID,23.1679,VALID,132,VALID,0,
2008-09-27, 00:10:05,VALID,1011.14,VALID,0,VALID,95.7718,VALID,0,VALID,23.1679,VALID,132,VALID,0,
2008-09-27, 00:11:05,VALID,1011.14,VALID,0,VALID,95.7795,VALID,0,VALID,23.1679,VALID,132,VALID,0,
2008-09-27, 00:12:05,VALID,1011.16,VALID,0,VALID,95.7566,VALID,0,VALID,23.1485,VALID,132,VALID,0.0871094,
2008-09-27, 00:13:05,VALID,1011.15,VALID,0,VALID,95.749,VALID,0,VALID,23.1485,VALID,44,VALID,0.5125,
2008-09-27, 00:14:05,VALID,1011.16,VALID,0,VALID,95.7718,VALID,0,VALID,23.1485,VALID,31,VALID,0.417969,
2008-09-27, 00:15:05,VALID,1011.13,VALID,0,VALID,95.7337,VALID,0,VALID,23.1485,VALID,19,VALID,0.452344,
2008-09-27, 00:16:05,VALID,1011.16,VALID,0,VALID,95.7337,VALID,0,VALID,23.1272,VALID,14,VALID,0.271094,
2008-09-27, 00:17:05,VALID,1011.15,VALID,0,VALID,95.7337,VALID,0,VALID,23.1485,VALID,14,VALID,0.125391,
2008-09-27, 00:18:05,VALID,1011.14,VALID,0,VALID,95.7185,VALID,0,VALID,23.129,VALID,14,VALID,0,
2008-09-27, 00:19:05,VALID,1011.15,VALID,0,VALID,95.7413,VALID,0,VALID,23.1485,VALID,14,VALID,0,
2008-09-27, 00:20:05,VALID,1011.12,VALID,0,VALID,95.7413,VALID,0,VALID,23.1077,VALID,14,VALID,0,
2008-09-27, 00:21:05,VALID,1011.13,VALID,0,VALID,95.7337,VALID,0,VALID,23.129,VALID,14,VALID,0,
2008-09-27, 00:22:05,VALID,1011.13,VALID,0,VALID,95.7337,VALID,0,VALID,23.0688,VALID,14,VALID,0,
2008-09-27, 00:23:05,VALID,1011.1,VALID,0,VALID,95.749,VALID,0,VALID,23.0705,VALID,14,VALID,0.103516,
2008-09-27, 00:24:05,VALID,1011.13,VALID,0,VALID,95.7185,VALID,0,VALID,23.0493,VALID,14,VALID,0,
2008-09-27, 00:25:05,VALID,1011.13,VALID,0,VALID,95.749,VALID,0,VALID,23.0511,VALID,14,VALID,0,
2008-09-27, 00:26:05,VALID,1011.14,VALID,0,VALID,95.7261,VALID,0,VALID,23.0511,VALID,14,VALID,0,
2008-09-27, 00:27:05,VALID,1011.15,VALID,0,VALID,95.7413,VALID,0,VALID,23.0511,VALID,14,VALID,0,
2008-09-27, 00:28:05,VALID,1011.14,VALID,0,VALID,95.749,VALID,0,VALID,23.0316,VALID,14,VALID,0,
2008-09-27, 00:29:05,VALID,1011.14,VALID,0,VALID,95.7413,VALID,0,VALID,23.0298,VALID,14,VALID,0.0621094,
2008-09-27, 00:30:05,VALID,1011.13,VALID,0,VALID,95.7642,VALID,0,VALID,23.0511,VALID,21,VALID,0.332422,
2008-09-27, 00:31:05,VALID,1011.12,VALID,0,VALID,95.7642,VALID,0,VALID,23.0316,VALID,22,VALID,0.303906,
2008-09-27, 00:32:05,VALID,1011.11,VALID,0,VALID,95.7337,VALID,0,VALID,23.0511,VALID,31,VALID,0.181641,
2008-09-27, 00:33:05,VALID,1011.14,VALID,0,VALID,95.7566,VALID,0,VALID,23.0493,VALID,31,VALID,0.268359,
2008-09-27, 00:34:05,VALID,1011.11,VALID,0,VALID,95.7566,VALID,0,VALID,23.0298,VALID,31,VALID,0.0152344,
2008-09-27, 00:35:05,VALID,1011.11,VALID,0,VALID,95.7413,VALID,0,VALID,23.0316,VALID,31,VALID,0.265234,
2008-09-27, 00:36:05,VALID,1011.11,VALID,0,VALID,95.749,VALID,0,VALID,22.9909,VALID,31,VALID,0.0164062,
2008-09-27, 00:37:05,VALID,1011.09,VALID,0,VALID,95.7337,VALID,0,VALID,23.0316,VALID,31,VALID,0,
2008-09-27, 00:38:05,VALID,1011.09,VALID,0,VALID,95.7337,VALID,0,VALID,23.0316,VALID,31,VALID,0,
2008-09-27, 00:39:05,VALID,1011.07,VALID,0,VALID,95.7413,VALID,0,VALID,23.0316,VALID,31,VALID,0,
2008-09-27, 00:40:05,VALID,1011.07,VALID,0,VALID,95.7642,VALID,0,VALID,22.9714,VALID,31,VALID,0,
2008-09-27, 00:41:05,VALID,1011.06,VALID,0,VALID,95.749,VALID,0,VALID,23.0121,VALID,31,VALID,0,
2008-09-27, 00:42:05,VALID,1011.04,VALID,0,VALID,95.7642,VALID,0,VALID,23.0121,VALID,31,VALID,0,
2008-09-27, 00:43:05,VALID,1011.04,VALID,0,VALID,95.749,VALID,0,VALID,23.0316,VALID,31,VALID,0.201562,
2008-09-27, 00:44:05,VALID,1011.01,VALID,0,VALID,95.7718,VALID,0,VALID,23.0511,VALID,31,VALID,0.199609,
2008-09-27, 00:45:05,VALID,1011.01,VALID,0,VALID,95.7642,VALID,0,VALID,23.0121,VALID,31,VALID,0.212891,
2008-09-27, 00:46:05,VALID,1011.06,VALID,0,VALID,95.7718,VALID,0,VALID,23.0121,VALID,31,VALID,0.116797,
2008-09-27, 00:47:05,VALID,1011.03,VALID,0,VALID,95.7642,VALID,0,VALID,23.0121,VALID,31,VALID,0.254297,
2008-09-27, 00:48:05,VALID,1011.04,VALID,0,VALID,95.749,VALID,0,VALID,23.0316,VALID,31,VALID,0,
2008-09-27, 00:49:05,VALID,1011.04,VALID,0,VALID,95.749,VALID,0,VALID,23.0121,VALID,31,VALID,0,
2008-09-27, 00:50:05,VALID,1011.03,VALID,0,VALID,95.7718,VALID,0,VALID,23.0316,VALID,31,VALID,0,
2008-09-27, 00:51:05,VALID,1010.99,VALID,0,VALID,95.749,VALID,0,VALID,22.9926,VALID,31,VALID,0,
2008-09-27, 00:52:05,VALID,1011,VALID,0,VALID,95.7642,VALID,0,VALID,22.9909,VALID,31,VALID,0,
2008-09-27, 00:53:05,VALID,1010.99,VALID,0,VALID,95.7642,VALID,0,VALID,23.0121,VALID,31,VALID,0,
2008-09-27, 00:54:05,VALID,1010.97,VALID,0,VALID,95.7642,VALID,0,VALID,23.0121,VALID,31,VALID,0,
2008-09-27, 00:55:05,VALID,1010.97,VALID,0,VALID,95.749,VALID,0,VALID,22.9926,VALID,31,VALID,0,
2008-09-27, 00:56:05,VALID,1010.96,VALID,0,VALID,95.7566,VALID,0,VALID,22.9926,VALID,31,VALID,0,
2008-09-27, 00:57:05,VALID,1010.98,VALID,0,VALID,95.7566,VALID,0,VALID,23.0121,VALID,31,VALID,0,
2008-09-27, 00:58:05,VALID,1010.96,VALID,0,VALID,95.749,VALID,0,VALID,22.9714,VALID,31,VALID,0,
2008-09-27, 00:59:05,VALID,1010.93,VALID,0,VALID,95.7642,VALID,0,VALID,22.9731,VALID,31,VALID,0,
2008-09-27, 01:00:05,VALID,1010.93,VALID,0,VALID,95.7566,VALID,0,VALID,22.9731,VALID,31,VALID,0.217969,
2008-09-27, 01:01:05,VALID,1010.95,VALID,0,VALID,95.7795,VALID,0,VALID,22.9731,VALID,31,VALID,0.207031,
2008-09-27, 01:02:05,VALID,1010.93,VALID,0,VALID,95.7566,VALID,0,VALID,22.9731,VALID,3,VALID,0.167969,
2008-09-27, 01:03:05,VALID,1010.92,VALID,0,VALID,95.7642,VALID,0,VALID,22.9714,VALID,3,VALID,0.00664063,
2008-09-27, 01:04:05,VALID,1010.91,VALID,0,VALID,95.7566,VALID,0,VALID,22.9731,VALID,354,VALID,0.319922,
2008-09-27, 01:05:05,VALID,1010.92,VALID,0,VALID,95.7718,VALID,0,VALID,22.9926,VALID,354,VALID,0.339844,
2008-09-27, 01:06:05,VALID,1010.9,VALID,0,VALID,95.7718,VALID,0,VALID,22.9536,VALID,354,VALID,0.118359,
2008-09-27, 01:07:05,VALID,1010.9,VALID,0,VALID,95.7566,VALID,0,VALID,22.9536,VALID,353,VALID,0.334766,
2008-09-27, 01:08:05,VALID,1010.88,VALID,0,VALID,95.7642,VALID,0,VALID,22.9926,VALID,353,VALID,0,
2008-09-27, 01:09:05,VALID,1010.88,VALID,0,VALID,95.7718,VALID,0,VALID,22.9731,VALID,353,VALID,0.207031,
2008-09-27, 01:10:05,VALID,1010.85,VALID,0,VALID,95.7566,VALID,0,VALID,23.0121,VALID,353,VALID,0.0234375,
2008-09-27, 01:11:05,VALID,1010.87,VALID,0,VALID,95.7718,VALID,0,VALID,22.9926,VALID,353,VALID,0.21875,
2008-09-27, 01:12:05,VALID,1010.88,VALID,0,VALID,95.7718,VALID,0,VALID,22.9926,VALID,353,VALID,0,
2008-09-27, 01:13:05,VALID,1010.87,VALID,0,VALID,95.7413,VALID,0,VALID,22.9926,VALID,353,VALID,0.169141,
2008-09-27, 01:14:05,VALID,1010.85,VALID,0,VALID,95.7566,VALID,0,VALID,22.9926,VALID,353,VALID,0.241797,
2008-09-27, 01:15:05,VALID,1010.87,VALID,0,VALID,95.7566,VALID,0,VALID,22.9731,VALID,353,VALID,0.226172,
2008-09-27, 01:16:05,VALID,1010.82,VALID,0,VALID,95.7718,VALID,0,VALID,22.9731,VALID,353,VALID,0,
2008-09-27, 01:17:05,VALID,1010.81,VALID,0,VALID,95.7566,VALID,0,VALID,22.9714,VALID,353,VALID,0,
2008-09-27, 01:18:05,VALID,1010.79,VALID,0,VALID,95.7642,VALID,0,VALID,22.9731,VALID,353,VALID,0.107031,
2008-09-27, 01:19:05,VALID,1010.76,VALID,0,VALID,95.7718,VALID,0,VALID,22.9342,VALID,353,VALID,0.236328,
2008-09-27, 01:20:05,VALID,1010.74,VALID,0,VALID,95.7718,VALID,0,VALID,22.9731,VALID,353,VALID,0.248047,
2008-09-27, 01:21:05,VALID,1010.72,VALID,0,VALID,95.7718,VALID,0,VALID,22.9926,VALID,353,VALID,0.193359,
2008-09-27, 01:22:05,VALID,1010.73,VALID,0,VALID,95.8023,VALID,0,VALID,23.0103,VALID,92,VALID,0.476563,
2008-09-27, 01:23:05,VALID,1010.7,VALID,0,VALID,95.7718,VALID,0.105969,VALID,23.0103,VALID,102,VALID,0.561719,
2008-09-27, 01:24:05,VALID,1010.7,VALID,0,VALID,95.7795,VALID,0.105969,VALID,23.0298,VALID,102,VALID,0.365625,
2008-09-27, 01:25:05,VALID,1010.71,VALID,0,VALID,95.7795,VALID,0.105969,VALID,23.0298,VALID,102,VALID,0.215625,
2008-09-27, 01:26:05,VALID,1010.73,VALID,0,VALID,95.7642,VALID,0.105969,VALID,23.0493,VALID,102,VALID,0.0425781,
2008-09-27, 01:27:05,VALID,1010.7,VALID,0,VALID,95.7795,VALID,0,VALID,23.0688,VALID,102,VALID,0,
2008-09-27, 01:28:05,VALID,1010.7,VALID,0,VALID,95.7642,VALID,0.105969,VALID,23.0688,VALID,102,VALID,0,
2008-09-27, 01:29:05,VALID,1010.68,VALID,0,VALID,95.7566,VALID,0.105969,VALID,23.0883,VALID,102,VALID,0,
2008-09-27, 01:30:05,VALID,1010.69,VALID,0,VALID,95.7718,VALID,0.105969,VALID,23.129,VALID,102,VALID,0,
2008-09-27, 01:31:05,VALID,1010.68,VALID,0,VALID,95.7642,VALID,0.105969,VALID,23.1077,VALID,102,VALID,0.128125,
2008-09-27, 01:32:05,VALID,1010.69,VALID,0,VALID,95.7566,VALID,0.105969,VALID,23.1077,VALID,102,VALID,0.126953,
2008-09-27, 01:33:05,VALID,1010.67,VALID,0,VALID,95.7566,VALID,0.105969,VALID,23.0865,VALID,102,VALID,0.148047,
2008-09-27, 01:34:05,VALID,1010.68,VALID,0,VALID,95.7413,VALID,0.105969,VALID,23.0883,VALID,102,VALID,0.233203,
2008-09-27, 01:35:05,VALID,1010.66,VALID,0,VALID,95.749,VALID,0.105969,VALID,23.0883,VALID,102,VALID,0.23125,
2008-09-27, 01:36:05,VALID,1010.63,VALID,0,VALID,95.749,VALID,0,VALID,23.0688,VALID,102,VALID,0,
2008-09-27, 01:37:05,VALID,1010.68,VALID,0,VALID,95.7566,VALID,0,VALID,23.09,VALID,102,VALID,0,
2008-09-27, 01:38:05,VALID,1010.65,VALID,0,VALID,95.7413,VALID,0,VALID,23.0511,VALID,102,VALID,0,
2008-09-27, 01:39:05,VALID,1010.63,VALID,0,VALID,95.7261,VALID,0,VALID,23.0316,VALID,102,VALID,0,
2008-09-27, 01:40:05,VALID,1010.64,VALID,0,VALID,95.749,VALID,0,VALID,23.0121,VALID,102,VALID,0,
2008-09-27, 01:41:05,VALID,1010.62,VALID,0,VALID,95.7413,VALID,0,VALID,22.9926,VALID,102,VALID,0,
2008-09-27, 01:42:05,VALID,1010.63,VALID,0,VALID,95.7413,VALID,0,VALID,22.9926,VALID,102,VALID,0,
2008-09-27, 01:43:05,VALID,1010.62,VALID,0,VALID,95.7413,VALID,0,VALID,22.9324,VALID,102,VALID,0,
2008-09-27, 01:44:05,VALID,1010.63,VALID,0,VALID,95.7413,VALID,0,VALID,22.9731,VALID,102,VALID,0,
2008-09-27, 01:45:05,VALID,1010.67,VALID,0,VALID,95.7185,VALID,0,VALID,22.9324,VALID,102,VALID,0,
2008-09-27, 01:46:05,VALID,1010.64,VALID,0,VALID,95.7413,VALID,0,VALID,22.9926,VALID,102,VALID,0,
2008-09-27, 01:47:05,VALID,1010.64,VALID,0,VALID,95.7413,VALID,0,VALID,22.9536,VALID,102,VALID,0,
2008-09-27, 01:48:05,VALID,1010.66,VALID,0,VALID,95.7337,VALID,0,VALID,22.9519,VALID,102,VALID,0,
2008-09-27, 01:49:05,VALID,1010.68,VALID,0,VALID,95.7566,VALID,0,VALID,22.9519,VALID,102,VALID,0,
2008-09-27, 01:50:05,VALID,1010.64,VALID,0,VALID,95.7642,VALID,0,VALID,22.9731,VALID,102,VALID,0,
2008-09-27, 01:51:05,VALID,1010.64,VALID,0,VALID,95.7566,VALID,0,VALID,22.9519,VALID,102,VALID,0,
2008-09-27, 01:52:05,VALID,1010.65,VALID,0,VALID,95.7718,VALID,0,VALID,22.9731,VALID,102,VALID,0,
2008-09-27, 01:53:05,VALID,1010.65,VALID,0,VALID,95.7718,VALID,0,VALID,22.9731,VALID,102,VALID,0,
2008-09-27, 01:54:05,VALID,1010.65,VALID,0,VALID,95.7795,VALID,0,VALID,22.9926,VALID,102,VALID,0,
2008-09-27, 01:55:05,VALID,1010.68,VALID,0,VALID,95.7871,VALID,0,VALID,22.9909,VALID,102,VALID,0,
2008-09-27, 01:56:05,VALID,1010.69,VALID,0,VALID,95.7795,VALID,0,VALID,23.0121,VALID,102,VALID,0,
2008-09-27, 01:57:05,VALID,1010.7,VALID,0,VALID,95.7718,VALID,0,VALID,23.0316,VALID,102,VALID,0,
2008-09-27, 01:58:05,VALID,1010.71,VALID,0,VALID,95.8023,VALID,0,VALID,23.0316,VALID,102,VALID,0,
2008-09-27, 01:59:05,VALID,1010.71,VALID,0,VALID,95.7871,VALID,0,VALID,23.0723,VALID,102,VALID,0,
2008-09-27, 02:00:05,VALID,1010.72,VALID,0,VALID,95.7718,VALID,0,VALID,23.0528,VALID,102,VALID,0,
2008-09-27, 02:01:05,VALID,1010.72,VALID,0,VALID,95.7871,VALID,0,VALID,23.0333,VALID,43,VALID,0,
2008-09-27, 02:02:05,VALID,1010.74,VALID,0,VALID,95.7871,VALID,0,VALID,23.0316,VALID,29,VALID,0,
2008-09-27, 02:03:05,VALID,1010.71,VALID,0,VALID,95.7871,VALID,0,VALID,23.0316,VALID,28,VALID,0,
2008-09-27, 02:04:05,VALID,1010.76,VALID,0,VALID,95.7871,VALID,0,VALID,23.0316,VALID,28,VALID,0,
2008-09-27, 02:05:05,VALID,1010.74,VALID,0,VALID,95.7871,VALID,0,VALID,23.0316,VALID,22,VALID,0,
2008-09-27, 02:06:05,VALID,1010.72,VALID,0,VALID,95.7718,VALID,0,VALID,23.0528,VALID,22,VALID,0,
2008-09-27, 02:07:05,VALID,1010.72,VALID,0,VALID,95.7947,VALID,0.105969,VALID,23.0493,VALID,22,VALID,0,
2008-09-27, 02:08:05,VALID,1010.68,VALID,0,VALID,95.8176,VALID,0.105969,VALID,23.0493,VALID,22,VALID,0.0152344,
2008-09-27, 02:09:05,VALID,1010.7,VALID,0,VALID,95.8023,VALID,0.105969,VALID,23.0688,VALID,22,VALID,0.137891,
2008-09-27, 02:10:05,VALID,1010.69,VALID,0,VALID,95.8176,VALID,0,VALID,23.0688,VALID,22,VALID,0,
2008-09-27, 02:11:05,VALID,1010.69,VALID,0,VALID,95.7871,VALID,0.105969,VALID,23.09,VALID,22,VALID,0,
2008-09-27, 02:12:05,VALID,1010.67,VALID,0,VALID,95.8023,VALID,0.105969,VALID,23.0476,VALID,22,VALID,0,
2008-09-27, 02:13:05,VALID,1010.65,VALID,0,VALID,95.81,VALID,0.105969,VALID,23.0883,VALID,22,VALID,0.194141,
2008-09-27, 02:14:05,VALID,1010.62,VALID,0,VALID,95.8023,VALID,0.105969,VALID,23.1272,VALID,100,VALID,0.384375,
2008-09-27, 02:15:05,VALID,1010.63,VALID,0,VALID,95.8176,VALID,0.105969,VALID,23.1467,VALID,101,VALID,0.326172,
2008-09-27, 02:16:05,VALID,1010.63,VALID,0,VALID,95.8176,VALID,0,VALID,23.1679,VALID,101,VALID,0.423438,
2008-09-27, 02:17:05,VALID,1010.65,VALID,0,VALID,95.8023,VALID,0.105969,VALID,23.1662,VALID,92,VALID,0.408594,
2008-09-27, 02:18:05,VALID,1010.64,VALID,0,VALID,95.8023,VALID,0.105969,VALID,23.1662,VALID,61,VALID,0.378516,
2008-09-27, 02:19:05,VALID,1010.67,VALID,0,VALID,95.7947,VALID,0.105969,VALID,23.1467,VALID,61,VALID,0.0117188,
2008-09-27, 02:20:05,VALID,1010.67,VALID,0,VALID,95.8023,VALID,0,VALID,23.1467,VALID,61,VALID,0.0164062,
2008-09-27, 02:21:05,VALID,1010.65,VALID,0,VALID,95.7871,VALID,0,VALID,23.1662,VALID,61,VALID,0.243359,
2008-09-27, 02:22:05,VALID,1010.6,VALID,0,VALID,95.7718,VALID,0,VALID,23.1679,VALID,61,VALID,0.354688,
2008-09-27, 02:23:05,VALID,1010.6,VALID,0,VALID,95.7642,VALID,0,VALID,23.1485,VALID,59,VALID,0.479688,
2008-09-27, 02:24:05,VALID,1010.54,VALID,0,VALID,95.7718,VALID,0,VALID,23.129,VALID,58,VALID,0.455078,
2008-09-27, 02:25:05,VALID,1010.54,VALID,0,VALID,95.7566,VALID,0,VALID,23.1679,VALID,58,VALID,0.305469,
2008-09-27, 02:26:05,VALID,1010.54,VALID,0,VALID,95.7642,VALID,0,VALID,23.1697,VALID,59,VALID,0.421094,
2008-09-27, 02:27:05,VALID,1010.51,VALID,0,VALID,95.7642,VALID,0,VALID,23.1095,VALID,59,VALID,0.00195313,
2008-09-27, 02:28:05,VALID,1010.5,VALID,0,VALID,95.749,VALID,0,VALID,23.1502,VALID,59,VALID,0,
2008-09-27, 02:29:05,VALID,1010.49,VALID,0,VALID,95.7566,VALID,0,VALID,23.129,VALID,59,VALID,0.116406,
2008-09-27, 02:30:05,VALID,1010.49,VALID,0,VALID,95.749,VALID,0,VALID,23.129,VALID,59,VALID,0.178516,
2008-09-27, 02:31:05,VALID,1010.48,VALID,0,VALID,95.749,VALID,0,VALID,23.1095,VALID,59,VALID,0.0429688,
2008-09-27, 02:32:05,VALID,1010.47,VALID,0,VALID,95.7413,VALID,0,VALID,23.129,VALID,59,VALID,0.39375,
2008-09-27, 02:33:05,VALID,1010.45,VALID,0,VALID,95.749,VALID,0,VALID,23.09,VALID,59,VALID,0.310937,
2008-09-27, 02:34:05,VALID,1010.46,VALID,0,VALID,95.7642,VALID,0,VALID,23.129,VALID,59,VALID,0.330078,
2008-09-27, 02:35:05,VALID,1010.47,VALID,0,VALID,95.7413,VALID,0,VALID,23.1485,VALID,59,VALID,0.158984,
2008-09-27, 02:36:05,VALID,1010.46,VALID,0,VALID,95.7337,VALID,0,VALID,23.1874,VALID,59,VALID,0.149219,
2008-09-27, 02:37:05,VALID,1010.45,VALID,0,VALID,95.7261,VALID,0,VALID,23.1662,VALID,74,VALID,0.490234,
2008-09-27, 02:38:05,VALID,1010.46,VALID,0,VALID,95.7337,VALID,0.105969,VALID,23.1467,VALID,74,VALID,0.273047,
2008-09-27, 02:39:04,VALID,1010.45,VALID,0,VALID,95.7185,VALID,0.105969,VALID,23.1857,VALID,81,VALID,0.278516,
2008-09-27, 02:40:04,VALID,1010.42,VALID,0,VALID,95.7185,VALID,0.105969,VALID,23.1467,VALID,95,VALID,0.657031,
2008-09-27, 02:41:04,VALID,1010.44,VALID,0,VALID,95.7108,VALID,0.105969,VALID,23.2246,VALID,86,VALID,0.340234,
2008-09-27, 02:42:04,VALID,1010.45,VALID,0,VALID,95.6956,VALID,0,VALID,23.2069,VALID,83,VALID,0.192969,
2008-09-27, 02:43:04,VALID,1010.47,VALID,0,VALID,95.6956,VALID,0,VALID,23.2051,VALID,83,VALID,0.324609,
2008-09-27, 02:44:04,VALID,1010.48,VALID,0,VALID,95.6803,VALID,0.105969,VALID,23.1857,VALID,101,VALID,0.544531,
2008-09-27, 02:45:04,VALID,1010.49,VALID,0,VALID,95.688,VALID,0.105969,VALID,23.2246,VALID,104,VALID,0.178906,
2008-09-27, 02:46:04,VALID,1010.45,VALID,0,VALID,95.6498,VALID,0,VALID,23.1857,VALID,104,VALID,0.594141,
2008-09-27, 02:47:04,VALID,1010.49,VALID,0,VALID,95.6574,VALID,0.105969,VALID,23.1662,VALID,103,VALID,0.384766,
2008-09-27, 02:48:04,VALID,1010.49,VALID,0,VALID,95.6346,VALID,0,VALID,23.2051,VALID,93,VALID,0.803125,
2008-09-27, 02:49:04,VALID,1010.47,VALID,0,VALID,95.6422,VALID,0,VALID,23.2246,VALID,48,VALID,0.386719,
2008-09-27, 02:50:04,VALID,1010.53,VALID,0,VALID,95.6117,VALID,0,VALID,23.2459,VALID,48,VALID,0.220313,
2008-09-27, 02:51:04,VALID,1010.51,VALID,0,VALID,95.6193,VALID,0,VALID,23.2246,VALID,48,VALID,0,
2008-09-27, 02:52:04,VALID,1010.52,VALID,0,VALID,95.6193,VALID,0,VALID,23.2476,VALID,48,VALID,0.0878906,
2008-09-27, 02:53:04,VALID,1010.52,VALID,0,VALID,95.5888,VALID,0,VALID,23.2069,VALID,24,VALID,0.307813,
2008-09-27, 02:54:04,VALID,1010.51,VALID,0,VALID,95.5812,VALID,0,VALID,23.2087,VALID,13,VALID,0.484375,
2008-09-27, 02:55:04,VALID,1010.49,VALID,0,VALID,95.5736,VALID,0,VALID,23.1697,VALID,13,VALID,0,
2008-09-27, 02:56:04,VALID,1010.46,VALID,0,VALID,95.5736,VALID,0,VALID,23.1485,VALID,13,VALID,0.0015625,
2008-09-27, 02:57:04,VALID,1010.44,VALID,0,VALID,95.5736,VALID,0,VALID,23.1697,VALID,13,VALID,0.2,
2008-09-27, 02:58:04,VALID,1010.43,VALID,0,VALID,95.5736,VALID,0,VALID,23.1485,VALID,13,VALID,0.0703125,
2008-09-27, 02:59:04,VALID,1010.42,VALID,0,VALID,95.5659,VALID,0,VALID,23.1502,VALID,13,VALID,0.146484,
2008-09-27, 03:00:04,VALID,1010.41,VALID,0,VALID,95.5659,VALID,0,VALID,23.129,VALID,13,VALID,0.0429688,
2008-09-27, 03:01:04,VALID,1010.4,VALID,0,VALID,95.5659,VALID,0,VALID,23.1095,VALID,13,VALID,0.00429688,
2008-09-27, 03:02:04,VALID,1010.38,VALID,0,VALID,95.5583,VALID,0,VALID,23.1095,VALID,13,VALID,0,
2008-09-27, 03:03:04,VALID,1010.39,VALID,0,VALID,95.5659,VALID,0,VALID,23.1095,VALID,13,VALID,0,
2008-09-27, 03:04:04,VALID,1010.38,VALID,0,VALID,95.5736,VALID,0,VALID,23.1095,VALID,13,VALID,0,
2008-09-27, 03:05:04,VALID,1010.38,VALID,0,VALID,95.5736,VALID,0,VALID,23.1307,VALID,13,VALID,0,
2008-09-27, 03:06:04,VALID,1010.39,VALID,0,VALID,95.5812,VALID,0,VALID,23.1112,VALID,13,VALID,0.0289063,
2008-09-27, 03:07:04,VALID,1010.38,VALID,0,VALID,95.5812,VALID,0,VALID,23.0883,VALID,13,VALID,0,
2008-09-27, 03:08:04,VALID,1010.34,VALID,0,VALID,95.5812,VALID,0.105969,VALID,23.129,VALID,13,VALID,0.324219,
2008-09-27, 03:09:04,VALID,1010.35,VALID,0,VALID,95.5583,VALID,0.105969,VALID,23.0883,VALID,13,VALID,0.330078,
2008-09-27, 03:10:04,VALID,1010.36,VALID,0,VALID,95.5659,VALID,0,VALID,23.0883,VALID,13,VALID,0.330078,
2008-09-27, 03:11:04,VALID,1010.35,VALID,0,VALID,95.5736,VALID,0,VALID,23.129,VALID,13,VALID,0.0246094,
2008-09-27, 03:12:04,VALID,1010.38,VALID,0,VALID,95.5888,VALID,0,VALID,23.1077,VALID,13,VALID,0.0398437,
2008-09-27, 03:13:04,VALID,1010.33,VALID,0,VALID,95.5812,VALID,0.105969,VALID,23.1272,VALID,13,VALID,0,
2008-09-27, 03:14:04,VALID,1010.3,VALID,0,VALID,95.5888,VALID,0,VALID,23.1485,VALID,13,VALID,0,
2008-09-27, 03:15:04,VALID,1010.28,VALID,0,VALID,95.5507,VALID,0,VALID,23.1077,VALID,13,VALID,0,
2008-09-27, 03:16:04,VALID,1010.26,VALID,0,VALID,95.5736,VALID,0.105969,VALID,23.0883,VALID,13,VALID,0,
2008-09-27, 03:17:04,VALID,1010.24,VALID,0,VALID,95.5659,VALID,0,VALID,23.0883,VALID,13,VALID,0,
2008-09-27, 03:18:04,VALID,1010.21,VALID,0,VALID,95.5888,VALID,0,VALID,23.129,VALID,13,VALID,0,
2008-09-27, 03:19:04,VALID,1010.2,VALID,0,VALID,95.5888,VALID,0.105969,VALID,23.1077,VALID,13,VALID,0,
2008-09-27, 03:20:04,VALID,1010.2,VALID,0,VALID,95.5812,VALID,0.105969,VALID,23.1077,VALID,13,VALID,0,
2008-09-27, 03:21:04,VALID,1010.18,VALID,0,VALID,95.5736,VALID,0,VALID,23.1077,VALID,13,VALID,0,
2008-09-27, 03:22:04,VALID,1010.17,VALID,0,VALID,95.5659,VALID,0,VALID,23.1095,VALID,13,VALID,0,
2008-09-27, 03:23:04,VALID,1010.15,VALID,0,VALID,95.5736,VALID,0,VALID,23.1095,VALID,13,VALID,0,
2008-09-27, 03:24:04,VALID,1010.15,VALID,0,VALID,95.5736,VALID,0,VALID,23.0511,VALID,13,VALID,0,
2008-09-27, 03:25:04,VALID,1010.16,VALID,0,VALID,95.5736,VALID,0,VALID,23.09,VALID,13,VALID,0,
2008-09-27, 03:26:04,VALID,1010.17,VALID,0,VALID,95.5812,VALID,0,VALID,23.0705,VALID,13,VALID,0,
2008-09-27, 03:27:04,VALID,1010.17,VALID,0,VALID,95.6117,VALID,0,VALID,23.0688,VALID,13,VALID,0,
2008-09-27, 03:28:04,VALID,1010.14,VALID,0,VALID,95.6041,VALID,0,VALID,23.0688,VALID,13,VALID,0,
2008-09-27, 03:29:04,VALID,1010.13,VALID,0,VALID,95.6041,VALID,0,VALID,23.0688,VALID,13,VALID,0,
2008-09-27, 03:30:04,VALID,1010.12,VALID,0,VALID,95.6041,VALID,0,VALID,23.0883,VALID,13,VALID,0,
2008-09-27, 03:31:04,VALID,1010.11,VALID,0,VALID,95.5964,VALID,0,VALID,23.0298,VALID,13,VALID,0,
2008-09-27, 03:32:04,VALID,1010.11,VALID,0,VALID,95.6041,VALID,0.105969,VALID,23.0688,VALID,13,VALID,0,
2008-09-27, 03:33:04,VALID,1010.1,VALID,0,VALID,95.5964,VALID,0.105969,VALID,23.0493,VALID,13,VALID,0.170312,
2008-09-27, 03:34:04,VALID,1010.09,VALID,0,VALID,95.5964,VALID,0.105969,VALID,23.0493,VALID,337,VALID,0.189063,
2008-09-27, 03:35:04,VALID,1010.08,VALID,0,VALID,95.5888,VALID,0.105969,VALID,23.0705,VALID,337,VALID,0,
2008-09-27, 03:36:04,VALID,1010.06,VALID,0,VALID,95.6117,VALID,0,VALID,23.0103,VALID,337,VALID,0,
2008-09-27, 03:37:04,VALID,1010.02,VALID,0,VALID,95.6117,VALID,0.105969,VALID,23.0298,VALID,327,VALID,0.299219,
2008-09-27, 03:38:04,VALID,1010.02,VALID,0,VALID,95.6193,VALID,0.105969,VALID,23.0298,VALID,323,VALID,0,
2008-09-27, 03:39:04,VALID,1009.99,VALID,0,VALID,95.6346,VALID,0,VALID,23.0688,VALID,323,VALID,0,
2008-09-27, 03:40:04,VALID,1009.98,VALID,0,VALID,95.6269,VALID,0.105969,VALID,23.0493,VALID,323,VALID,0.294531,
2008-09-27, 03:41:04,VALID,1009.95,VALID,0,VALID,95.6346,VALID,0,VALID,23.09,VALID,323,VALID,0.160156,
2008-09-27, 03:42:04,VALID,1009.97,VALID,0,VALID,95.6193,VALID,0,VALID,23.0883,VALID,323,VALID,0.003125,
2008-09-27, 03:43:04,VALID,1009.95,VALID,0,VALID,95.6422,VALID,0,VALID,23.0883,VALID,323,VALID,0,
2008-09-27, 03:44:04,VALID,1009.99,VALID,0,VALID,95.6269,VALID,0,VALID,23.0883,VALID,323,VALID,0.0242187,
2008-09-27, 03:45:04,VALID,1009.98,VALID,0,VALID,95.6193,VALID,0,VALID,23.0688,VALID,323,VALID,0.284375,
2008-09-27, 03:46:04,VALID,1010.01,VALID,0,VALID,95.6041,VALID,0.105969,VALID,23.0493,VALID,323,VALID,0.196484,
2008-09-27, 03:47:04,VALID,1010.03,VALID,0,VALID,95.6193,VALID,0,VALID,23.0511,VALID,323,VALID,0.226953,
2008-09-27, 03:48:04,VALID,1010.04,VALID,0,VALID,95.6117,VALID,0,VALID,23.0103,VALID,323,VALID,0.243359,
2008-09-27, 03:49:04,VALID,1010.06,VALID,0,VALID,95.6117,VALID,0,VALID,23.0316,VALID,323,VALID,0.285937,